{"data":{"norad_id":36516,"epoch":"2026-05-25T03:15:48.075840Z","epoch_age_seconds":63543,"freshness":"FRESH","line1":"1 36516U 10016A   26145.13597310 -.00000117  00000+0  00000+0 0  9994","line2":"2 36516   0.0155 313.1592 0002745 110.4116 127.1008  1.00272030 58805","mean_motion":1.0027203,"eccentricity":0.0002745,"inclination_deg":0.0155,"raan_deg":313.1592,"arg_perigee_deg":110.4116,"mean_anomaly_deg":127.1008,"bstar":0,"rev_number":5880,"period_min":1436.0933951372,"perigee_km":35774.952078867,"apogee_km":35798.100479007,"semimajor_km":42164.663278937,"source":"CELESTRAK","updated_at":"2026-05-25T13:38:14.503398Z"}}